Location: Cardiff
(53.7833°N, 113.6000°W)
Time: 16:08:10
(UTC+00:00)

RS-15 - Pass Details

Date: 11 December 2023
Orbit: 1893 x 2151 km, 64.8° (Epoch: 20 February)

Event Time Altitude Azimuth Distance (km) Brightness Sun altitude
Rises 02:51:58 0° 199° (SSW) 5,652 10.7 -30.7°
Reaches altitude 10° 02:55:28 10° 196° (SSW) 4,639 10.1 -31.3°
Maximum altitude 03:07:16 61° 121° (ESE) 2,306 8.0 -33.0°
Enters shadow 03:08:14 60° 102° (ESE) 2,324 8.0 -33.1°
